"Pseudo-MPEC" for Irzy1Ij

Created 2022 Aug 18 15:22:06 UT using Find_Orb

Click here for an explanation of pseudo-MPECs

 
 Astrometry: 
     Irzy1Ij*!C2022 07 28a/BDsakPA.jY*'yK8`;8+/eT(cb_4$o0hLnsmcL`D%16e')K6E6DW84
     Irzy1Ij !C2022 07 28caWv*L`,o2TBYV_+q)d\?PcH!Tmkx1/:7@jumP[c6^BFC(qLlTEvW84
     Irzy1Ij !C2022 07 28=nQq;BAstrometryJL+d=LTls^N5!sxpZ6vjA#-5T%+Q)W\mO.!AW84
     Irzy1Ij !C2022 07 28'9op;gim,9Mv5Sf10M?,+p5cR\8;]redacted;3vQ]mlJ6_0Pf,?W84
     Irzy1Ij !C2022 07 28?LP*TQI`6sPyK2k@J%=UdGfT`Q^L7$Ed.Or9R2PKb)QOOqSTh.J,W84
     Irzy1Ij !C2022 07 28/6aIgEuY#tC2$o%V'U(j_3s4^LBM4l3w\tF$tu]woZ/sO5PVD2)EW84
     Irzy1Ij !C2022 07 28sq]ym0g_xdvr0l+7DUq-NFvXVADW$C*v'^ikK)ij%TYclickb:p,W84
     Irzy1Ij !C2022 07 28og:wg60wWT.6xm2YQUJV8nq0UPrIYrAsobc%`u4H1f;whereEF,IW84
     Irzy1Ij !C2022 07 28#E=Wp'f!T5!3-C`W+I6EDJnUj/,iV9m3^0j.l1for/FF1Y..?e9BW84
     Irzy1Ij !C2022 07 28!9g-vJp):B-9Zq^hcoxcocv#qohd8DW%$dUN5^h;O/:GG]dp[NexW84
     Irzy1Ij !C2022 07 28$iIt132Ukk3/FbD+*:eZIZ[p=EfxM+PRtyL`f8o1))AOk?4uYTU\W84
     Irzy1Ij !C2022 07 2846,Q6L)cexplanationXYo,2ulx3b0pkQF\J41^hg@VWM-GS6e1IW84
     Irzy1Ij !C2022 07 28Z[0dZCLD:qO:Sy(?]q`XM=+5?8K*JOB0N,Dr3hf*=Z8qbW.Y=fa4W84

Station data:
(W84) Cerro Tololo-DECam  (S30.169594 W70.806420)  Chile.  Observer F. Valdes.
    Measurer S. Deen. 4.0-m reflector + CCD.

Orbital elements:  Irzy1Ij
   Perihelion 2023 Jul 3.51144 +/- 346 TT = 12:16:28 (JD 2460129.01144)
Epoch 2022 Jul 28.0 TT = JDT 2459788.5   Earth MOID: 0.6696   AutoNEOCP
M 228.07978786 +/- 100              (J2000 ecliptic)
n   0.38741785 +/- 0.221            Peri.   19.32349 +/- 60
a   1.86358680 +/- 0.707            Node    65.12663 +/- 43
e   0.1150797 +/- 0.248             Incl.   20.83457 +/- 36
P   2.54/929.21d           H 20.0   G  0.15   U 11.7  SR
q 1.64912571 +/- 0.986    Q 2.07804790 +/- 39.2
From 13 observations 2022 July 28 (76.4 min); mean residual 0".10
Residuals in arcseconds: 
220728 W84  .12+  .08-    220728 W84  .19-  .12-    220728 W84  .12+  .01-    
220728 W84  .19-  .04-    220728 W84  .23-  .09-    220728 W84  .06-  .04-    
220728 W84  .14+  .10+    220728 W84  .07-  .04+    220728 W84  .01+  .01-    
220728 W84  .08+  .08+    220728 W84  .09+  .07+    
220728 W84  .10+  .04+    220728 W84  .09+  .06+    

Ephemerides (geocentric):
Date (UTC) HH   RA             Dec           delta  r     elong  mag " sig PA
---- --------  ------------   ------------  ------ ------ -----  --- --------
2022 08 18 15  20 12 47.357   -54 55 08.64  1.1570 1.9977 134.0 22.9  25d  49
2022 08 18 16  20 12 44.072   -54 55 05.54  1.1572 1.9976 134.0 22.9  25d  49
2022 08 18 17  20 12 40.792   -54 55 02.38  1.1573 1.9976 134.0 22.9  25d  49
2022 08 18 18  20 12 37.517   -54 54 59.17  1.1575 1.9975 133.9 22.9  25d  49
2022 08 18 19  20 12 34.247   -54 54 55.91  1.1577 1.9975 133.9 22.9  25d  49
2022 08 18 20  20 12 30.982   -54 54 52.60  1.1579 1.9974 133.9 22.9  25d  49
2022 08 18 21  20 12 27.721   -54 54 49.24  1.1581 1.9974 133.8 22.9  25d  49
2022 08 18 22  20 12 24.465   -54 54 45.82  1.1583 1.9973 133.8 22.9  25d  49
2022 08 18 23  20 12 21.215   -54 54 42.36  1.1585 1.9973 133.8 22.9  25d  49
2022 08 19 00  20 12 17.969   -54 54 38.85  1.1587 1.9973 133.8 22.9  25d  49
2022 08 19 01  20 12 14.727   -54 54 35.29  1.1589 1.9972 133.7 22.9  25d  49
2022 08 19 02  20 12 11.491   -54 54 31.67  1.1591 1.9972 133.7 22.9  25d  49
2022 08 19 03  20 12 08.260   -54 54 28.01  1.1593 1.9971 133.7 22.9  25d  49
2022 08 19 04  20 12 05.033   -54 54 24.29  1.1594 1.9971 133.6 22.9  25d  49
2022 08 19 05  20 12 01.812   -54 54 20.53  1.1596 1.9970 133.6 22.9  25d  49
2022 08 19 06  20 11 58.595   -54 54 16.71  1.1598 1.9970 133.6 22.9  25d  49
2022 08 19 07  20 11 55.384   -54 54 12.85  1.1600 1.9969 133.5 22.9  25d  49
2022 08 19 08  20 11 52.177   -54 54 08.93  1.1602 1.9969 133.5 22.9  25d  49
2022 08 19 09  20 11 48.975   -54 54 04.97  1.1604 1.9969 133.5 22.9  25d  49
2022 08 19 10  20 11 45.778   -54 54 00.96  1.1606 1.9968 133.5 22.9  25d  49
2022 08 19 11  20 11 42.586   -54 53 56.89  1.1608 1.9968 133.4 22.9  25d  49
2022 08 19 12  20 11 39.399   -54 53 52.78  1.1610 1.9967 133.4 22.9  25d  49
2022 08 19 13  20 11 36.217   -54 53 48.61  1.1612 1.9967 133.4 22.9  25d  49
2022 08 19 14  20 11 33.040   -54 53 44.40  1.1614 1.9966 133.3 22.9  25d  49
2022 08 19 15  20 11 29.868   -54 53 40.13  1.1616 1.9966 133.3 22.9  25d  49
2022 08 19 16  20 11 26.701   -54 53 35.82  1.1618 1.9965 133.3 22.9  25d  49
2022 08 19 17  20 11 23.539   -54 53 31.46  1.1620 1.9965 133.3 22.9  25d  49
2022 08 19 18  20 11 20.382   -54 53 27.04  1.1622 1.9965 133.2 22.9  25d  49
2022 08 19 19  20 11 17.230   -54 53 22.58  1.1623 1.9964 133.2 22.9  25d  49
2022 08 19 20  20 11 14.083   -54 53 18.07  1.1625 1.9964 133.2 22.9  25d  49
2022 08 19 21  20 11 10.941   -54 53 13.51  1.1627 1.9963 133.1 22.9  25d  49
2022 08 19 22  20 11 07.805   -54 53 08.90  1.1629 1.9963 133.1 22.9  25d  49
2022 08 19 23  20 11 04.673   -54 53 04.24  1.1631 1.9962 133.1 22.9  25d  49
2022 08 20 00  20 11 01.546   -54 52 59.53  1.1633 1.9962 133.1 22.9  25d  49
2022 08 20 01  20 10 58.424   -54 52 54.77  1.1635 1.9961 133.0 22.9  25d  49
2022 08 20 02  20 10 55.308   -54 52 49.96  1.1637 1.9961 133.0 22.9  25d  49
2022 08 20 03  20 10 52.196   -54 52 45.11  1.1639 1.9961 133.0 22.9  25d  49
2022 08 20 04  20 10 49.090   -54 52 40.20  1.1641 1.9960 132.9 22.9  25d  49
2022 08 20 05  20 10 45.989   -54 52 35.25  1.1643 1.9960 132.9 22.9  25d  49
2022 08 20 06  20 10 42.892   -54 52 30.24  1.1645 1.9959 132.9 22.9  25d  49
2022 08 20 07  20 10 39.801   -54 52 25.19  1.1647 1.9959 132.8 22.9  25d  49
2022 08 20 08  20 10 36.715   -54 52 20.09  1.1649 1.9958 132.8 22.9  25d  49
2022 08 20 09  20 10 33.634   -54 52 14.94  1.1651 1.9958 132.8 22.9  25d  49
2022 08 20 10  20 10 30.559   -54 52 09.74  1.1653 1.9957 132.8 22.9  25d  49
2022 08 20 11  20 10 27.488   -54 52 04.49  1.1655 1.9957 132.7 22.9  25d  49
2022 08 20 12  20 10 24.423   -54 51 59.20  1.1657 1.9957 132.7 22.9  25d  49
2022 08 20 13  20 10 21.363   -54 51 53.85  1.1659 1.9956 132.7 22.9  25d  49
2022 08 20 14  20 10 18.308   -54 51 48.46  1.1661 1.9956 132.6 22.9  25d  49